Wind_Speed
27 30 28 26 25 26 29 30 28 29 34 40 44 43 38 35 34 34 34 35 36 35 29 26 30 36 40 41 43 43 44 47 51 51 48 45 42 41 42 43 43 41 39 39 38 35 33 32 30 30 30 29 28 29 29 29 29 28 28 28 26 24 21 19 18 19 20 21 22 22 20 19 21 21 21 21 20 19 20 21 21 21 20 21 21 21 21
25 29 27 25 25 26 29 32 33 32 33 36 41 44 42 39 38 39 40 39 38 37 31 27 30 34 37 40 42 43 43 46 48 48 46 44 41 39 39 39 37 35 34 36 36 35 35 32 28 27 29 29 29 29 30 30 29 29 29 28 26 23 22 21 21 21 21 22 23 23 21 21 21 22 21 21 20 20 22 22 22 21 21 21 22 22 22
22 26 24 23 23 24 26 31 35 35 32 32 40 45 43 42 43 44 42 37 35 36 32 30 33 33 32 37 40 39 40 43 45 45 44 41 39 38 37 36 33 31 32 33 34 34 33 31 28 28 29 30 29 29 30 30 30 29 29 28 25 23 23 23 23 22 22 23 24 24 22 22 23 22 22 22 21 22 23 23 22 22 22 23 23 23 24
19 22 21 21 22 22 24 27 32 36 33 30 36 43 42 42 46 47 40 34 32 32 27 29 35 34 30 32 36 37 38 41 44 46 44 40 37 36 34 32 32 33 34 33 31 31 30 29 28 29 30 30 29 28 29 30 30 31 31 29 25 23 25 25 23 22 22 24 25 24 23 23 23 23 23 22 22 23 24 24 23 23 23 24 24 25 25
16 19 19 19 21 21 23 26 29 33 32 27 31 40 43 42 44 44 38 33 31 28 25 28 34 36 33 30 32 35 36 38 43 44 41 37 35 34 32 29 31 34 34 32 29 29 29 28 28 29 30 30 29 28 30 32 32 32 32 29 26 25 26 25 22 22 23 24 24 23 23 23 23 22 22 22 22 24 24 25 24 23 24 25 25 26 26
11 17 16 17 20 19 19 23 28 31 31 28 28 35 43 44 41 37 34 33 31 24 23 30 35 37 38 34 33 34 34 35 39 39 36 34 34 35 33 30 32 33 32 29 28 29 29 27 28 30 31 31 30 30 32 34 34 34 33 30 28 27 26 23 21 21 23 23 24 23 23 23 22 21 21 22 23 24 25 26 25 24 25 25 26 26 27
6 12 11 13 17 17 16 21 27 30 31 31 29 32 40 46 45 38 34 35 32 23 21 29 36 38 40 38 37 39 38 35 34 32 32 33 34 35 33 31 32 33 32 29 28 27 27 27 29 32 32 32 31 31 33 35 35 35 33 31 30 28 24 21 20 21 22 23 23 23 23 22 22 22 23 23 24 25 27 27 26 25 26 26 27 27 26
6 8 8 10 13 15 17 21 25 28 29 30 31 32 37 46 50 47 40 36 32 27 23 27 32 36 39 38 39 43 43 39 35 32 30 32 33 33 31 30 30 30 31 31 29 28 27 28 31 33 32 32 32 32 34 35 35 34 33 32 30 26 22 21 21 22 23 23 23 23 23 23 24 24 25 25 26 27 28 28 27 27 27 27 27 26 25
6 7 8 9 10 14 18 20 23 27 28 28 30 30 32 40 49 53 49 39 32 29 28 25 25 29 31 28 29 36 41 38 33 32 32 33 34 32 30 29 27 26 27 27 26 26 27 28 31 33 33 32 32 33 35 35 34 34 34 32 28 25 23 22 22 23 23 23 23 24 24 25 25 26 27 27 27 28 29 28 28 28 28 27 27 26 25
9 10 12 11 8 11 16 22 25 27 28 29 29 27 27 33 43 50 52 47 38 33 31 26 23 24 23 17 16 26 36 34 28 28 30 31 33 33 29 26 23 22 22 22 23 25 28 30 33 34 34 33 33 34 34 33 34 34 33 31 28 26 25 23 23 23 22 22 23 24 25 25 26 26 27 27 27 28 28 28 28 27 27 27 26 25 25
14 13 14 12 7 4 9 20 26 27 27 27 27 26 26 32 40 45 49 51 47 41 34 26 25 27 24 17 15 21 29 30 26 26 26 26 29 31 27 22 19 19 19 20 22 26 29 32 33 34 34 34 35 34 33 33 34 33 32 30 29 27 26 25 25 23 22 23 24 25 26 26 25 25 26 26 27 28 28 27 26 26 26 26 25 25 26
15 15 14 12 9 8 6 14 24 27 27 26 26 26 28 32 38 43 47 50 51 48 40 31 28 28 24 21 19 18 21 24 24 23 23 23 24 24 21 18 18 18 18 19 21 24 27 30 33 34 34 34 35 34 33 33 33 33 32 32 31 29 28 27 26 25 24 25 26 27 28 26 24 24 25 26 27 27 26 25 25 25 25 26 27 28 30
15 16 14 12 11 11 7 8 17 24 27 27 25 26 27 29 33 38 42 47 50 51 49 42 36 31 25 22 19 19 22 22 20 20 22 23 22 22 22 22 23 21 20 20 21 22 24 27 31 33 34 34 34 33 33 33 34 34 34 33 31 30 30 29 28 27 26 27 27 27 27 25 24 25 25 25 25 24 24 24 25 26 27 29 31 33 34
12 12 12 13 13 11 7 4 13 20 25 26 24 23 24 26 29 31 33 38 42 46 50 49 45 41 35 28 24 25 29 29 24 24 27 29 28 28 28 26 26 26 26 25 23 22 23 26 30 33 34 34 33 32 33 34 35 35 34 33 31 30 30 29 28 27 26 26 26 26 27 26 25 24 23 23 23 23 24 25 26 28 30 32 34 35 36
10 10 12 12 11 10 9 5 12 17 21 23 21 20 22 26 27 25 25 28 31 35 39 43 46 47 45 41 38 36 37 36 32 30 32 33 32 32 31 28 26 27 28 27 25 24 25 28 31 33 34 33 32 33 34 36 36 35 34 31 30 29 29 27 26 25 26 26 26 26 26 26 24 23 23 23 24 25 26 27 29 31 32 34 35 36 36
9 10 11 9 7 8 10 7 9 13 16 19 20 20 23 25 26 24 23 24 27 29 32 33 36 41 44 45 45 45 43 40 37 34 33 33 33 34 34 31 29 28 27 26 25 26 29 31 32 33 33 33 34 35 36 36 35 34 32 30 29 28 26 25 24 24 25 25 25 26 26 25 24 24 24 24 25 27 27 29 31 33 34 35 36 36 37
9 10 8 7 6 5 6 5 5 7 12 16 18 20 22 23 24 25 25 26 27 28 29 30 32 35 37 39 41 42 41 40 39 37 35 34 36 39 38 34 31 29 27 26 27 29 30 31 31 32 33 34 35 35 35 35 33 32 30 29 28 26 25 24 25 25 26 26 26 26 26 25 24 24 25 26 27 29 30 32 34 35 37 37 37 37 36
10 10 9 9 9 8 6 5 4 6 10 14 15 17 18 20 21 23 25 27 29 29 30 31 31 31 31 33 35 36 38 38 37 36 36 38 40 41 41 38 34 31 30 30 31 32 31 31 33 34 34 34 34 34 34 33 31 30 29 28 26 25 25 25 25 26 25 25 25 25 24 24 25 25 26 28 30 32 33 35 36 37 37 37 36 36 35
10 11 10 9 9 10 9 6 5 8 10 13 14 15 17 19 21 23 25 28 29 30 32 32 31 30 30 30 32 34 35 35 35 35 38 40 38 36 38 39 38 37 36 35 34 34 35 35 35 35 34 33 33 33 32 30 29 28 27 26 25 25 25 26 26 25 24 23 24 24 24 24 25 26 28 30 32 33 34 35 36 36 36 36 35 34 33
10 9 9 8 7 9 10 6 6 8 10 11 14 15 16 18 21 23 25 27 28 29 30 32 32 32 31 30 32 34 34 34 35 37 38 35 30 30 35 38 38 39 40 38 37 36 35 35 34 33 32 32 32 31 29 28 27 26 25 25 26 26 26 26 25 24 23 23 23 23 24 25 25 27 30 31 32 33 33 34 34 34 34 34 34 33 32
12 11 11 11 10 11 10 6 6 8 9 10 12 13 14 16 20 21 22 25 28 29 30 32 33 32 31 30 31 32 33 34 35 35 33 29 27 29 32 32 33 37 39 39 36 34 33 33 33 32 32 32 30 29 27 26 25 24 25 26 27 27 27 26 25 24 24 24 24 25 26 26 28 30 32 32 33 33 33 33 33 32 32 32 31 31 31
14 13 12 12 12 11 10 7 7 9 11 11 12 12 13 16 19 18 17 19 24 28 29 30 31 31 30 30 30 30 31 33 33 31 29 27 27 28 27 26 29 34 37 37 37 35 34 34 33 32 31 30 29 29 28 27 27 26 27 27 26 26 26 26 25 25 25 25 27 28 28 29 30 32 33 33 33 33 33 33 32 32 32 32 31 31 31
12 12 11 11 12 11 10 8 7 9 11 13 13 13 14 15 19 19 15 15 20 25 27 28 29 31 30 29 28 29 30 32 33 31 29 27 27 27 25 24 27 31 33 35 37 36 33 32 31 29 29 29 29 29 29 29 29 28 27 26 25 25 25 25 25 26 27 28 29 30 30 31 33 33 33 33 33 33 33 33 32 32 32 32 32 32 31
11 12 12 11 10 8 8 8 9 10 11 12 14 15 15 15 17 19 17 15 18 22 23 22 25 30 31 28 25 25 26 29 30 30 29 27 27 27 26 27 29 30 29 31 32 31 28 27 26 26 26 27 28 29 29 30 30 29 28 27 26 25 25 25 26 28 30 30 31 31 32 34 34 34 34 34 34 34 33 32 32 32 32 32 32 32 32
12 12 12 10 7 4 5 6 7 8 7 8 12 15 16 15 15 17 19 18 18 21 22 19 18 21 25 25 21 19 20 23 24 25 25 26 27 27 26 27 30 30 27 28 30 29 27 26 26 26 27 28 29 30 31 31 31 30 30 29 29 27 26 26 28 30 31 31 32 32 33 34 35 36 36 35 35 35 34 32 32 32 32 33 33 32 31
14 14 15 11 7 6 6 5 5 6 6 6 9 13 16 15 14 16 18 19 20 22 25 24 20 18 20 22 19 15 13 16 19 20 20 22 25 26 24 24 27 27 25 26 27 27 26 25 24 24 25 26 29 32 34 34 34 33 32 32 32 30 28 28 30 31 32 31 31 32 34 36 38 38 37 36 36 36 34 33 32 32 33 33 33 33 32
13 14 15 14 12 11 10 8 7 8 9 8 7 9 12 13 13 15 16 18 20 22 24 26 26 24 23 24 23 20 16 16 19 20 18 17 18 21 21 20 20 20 20 21 22 23 23 22 22 22 23 23 25 26 28 31 33 33 33 33 32 30 28 29 30 31 31 31 32 35 38 39 39 39 37 36 36 36 35 34 33 34 34 34 34 33 33
14 12 13 14 14 15 15 14 11 9 10 9 8 8 10 11 12 14 16 18 20 23 24 25 26 26 26 26 26 25 22 21 23 25 25 23 20 19 19 17 15 13 12 13 16 19 21 22 23 24 24 25 24 23 23 24 26 28 29 30 28 27 26 28 30 31 32 33 35 38 39 39 38 38 37 35 35 36 36 35 35 35 35 35 34 34 34
18 16 14 13 14 16 18 18 16 13 13 12 10 9 10 12 13 14 14 15 18 22 24 25 27 27 28 27 28 28 26 24 24 26 29 30 29 26 25 24 23 20 17 16 16 17 20 22 23 24 24 25 25 24 23 23 24 26 27 27 27 27 29 30 32 33 35 35 36 38 39 39 39 39 38 36 35 36 36 36 36 36 35 35 34 34 35
19 20 19 16 15 15 17 18 18 17 16 16 14 12 12 13 14 15 15 14 15 17 20 23 25 27 29 30 30 29 28 27 27 27 29 31 32 31 30 28 27 26 24 23 22 22 22 22 23 23 24 24 25 25 26 26 27 28 29 29 30 31 32 33 34 35 36 37 38 39 41 41 41 42 41 38 36 35 35 36 37 37 35 34 34 34 35
17 19 20 19 18 17 16 17 17 18 18 18 18 16 15 14 14 16 17 17 16 17 18 18 19 21 24 27 29 30 30 30 31 31 31 32 33 33 33 32 31 30 29 28 27 27 27 26 26 26 26 26 27 28 30 31 31 31 32 32 33 33 34 34 35 35 36 37 37 38 38 38 39 40 40 37 35 35 36 37 36 35 35 34 34 34 35
15 17 19 19 19 18 18 17 17 18 19 19 20 20 19 17 16 17 18 19 18 18 19 18 17 17 18 20 23 25 27 28 30 32 34 34 35 35 36 36 35 35 34 33 32 31 31 31 31 30 30 31 31 32 33 33 33 33 34 34 35 35 35 35 36 36 36 38 38 38 38 37 35 35 35 35 35 36 36 34 34 33 33 33 34 34 35
14 16 18 19 19 19 19 18 18 18 19 20 22 22 21 20 20 20 21 21 21 21 20 20 19 19 18 18 19 20 22 23 25 27 30 31 33 34 35 36 36 37 37 37 36 36 35 35 34 34 34 34 35 35 35 35 34 34 35 36 36 36 36 36 37 38 39 40 41 40 40 38 37 36 36 35 35 34 32 31 32 32 32 32 33 34 34
16 16 16 18 19 20 20 18 18 18 19 20 21 22 22 22 22 23 24 24 24 23 23 22 22 21 20 20 20 21 22 23 24 26 27 29 30 31 32 32 33 35 36 37 37 37 38 38 38 38 37 37 37 37 36 35 35 35 36 36 36 37 38 39 40 41 41 40 39 38 37 37 37 36 35 34 32 31 31 31 32 32 32 32 33 34 34
18 19 19 17 18 20 21 20 20 19 19 19 21 22 22 22 22 23 25 25 25 24 24 25 25 25 25 25 25 25 26 27 28 29 30 31 32 32 32 33 33 33 33 33 33 34 36 38 39 39 38 37 37 36 36 35 35 36 37 37 38 39 41 41 41 40 39 37 35 34 34 34 34 33 33 33 33 32 32 32 32 32 33 33 32 32 33
11 14 17 18 19 20 21 20 20 20 20 20 21 23 24 24 24 24 26 27 28 27 27 27 28 28 29 29 28 29 29 30 31 32 33 33 34 34 34 35 35 34 34 34 33 33 35 36 36 37 38 37 37 36 36 36 37 39 40 40 40 40 40 39 38 37 36 35 34 33 33 32 32 32 32 33 33 32 33 33 33 33 32 32 32 32 32
10 10 13 16 18 20 20 20 20 20 20 20 20 22 24 25 26 27 27 29 30 30 28 28 28 28 29 29 29 29 30 30 31 32 34 34 35 35 35 36 37 36 36 36 36 35 35 35 35 35 36 37 38 38 38 38 39 40 39 38 37 37 36 35 35 34 34 33 33 32 32 32 32 32 32 32 32 32 32 33 33 32 32 32 32 33 33
16 14 13 13 14 15 17 19 20 20 21 20 20 21 23 24 25 26 28 30 31 32 31 30 29 29 28 29 29 28 28 28 28 29 31 32 33 33 34 34 36 37 37 38 37 36 35 35 35 35 36 36 37 38 37 37 36 35 33 33 33 33 34 34 34 33 33 32 31 31 31 31 30 30 30 30 30 30 31 31 31 32 32 33 33 33 34
18 16 14 14 14 14 15 17 19 20 21 21 21 21 22 23 24 24 24 26 28 30 32 33 33 32 31 30 29 29 29 28 27 28 29 29 30 31 31 32 32 33 34 34 34 33 33 32 33 34 34 34 34 34 33 33 33 32 31 30 31 31 32 33 33 33 32 31 30 30 29 29 29 29 29 29 30 30 30 31 31 32 32 33 33 34 34
21 20 19 19 18 17 17 18 20 20 21 21 21 21 21 22 21 21 21 21 23 25 27 29 30 31 31 29 28 28 29 29 29 29 29 29 29 29 30 30 29 29 29 29 29 29 29 29 30 32 32 32 31 31 31 31 32 31 31 30 30 29 29 30 30 29 28 28 28 28 28 29 29 28 28 29 30 31 31 31 31 32 32 33 33 34 35
25 24 23 22 20 18 18 19 20 21 22 22 22 23 23 21 20 20 19 19 19 20 21 22 23 24 25 25 24 24 25 27 27 28 29 30 30 29 29 28 28 28 28 28 28 28 29 29 30 30 31 30 30 30 30 30 31 31 31 30 29 28 28 29 30 30 29 28 28 28 28 29 29 29 30 31 31 32 32 32 32 32 33 34 34 34 35
27 26 25 23 22 20 19 19 19 19 20 21 21 22 23 22 22 21 20 19 19 19 18 19 20 21 21 21 21 21 22 22 23 24 26 29 30 30 29 29 29 29 28 28 28 28 29 28 28 28 29 29 29 29 29 30 30 30 29 28 28 28 28 29 31 32 33 32 30 29 30 31 32 32 33 33 34 33 33 34 34 34 34 34 33 32 32
26 26 25 23 22 22 22 21 21 21 22 22 22 22 23 22 22 22 21 20 20 19 19 20 21 21 21 20 20 20 20 20 19 19 21 24 26 27 28 27 27 26 26 26 27 27 27 27 27 28 28 28 28 28 29 30 29 29 28 28 28 28 29 30 31 33 33 33 33 33 33 34 35 35 36 36 36 36 36 36 36 36 35 34 34 33 32
26 26 25 24 23 24 24 23 23 23 23 23 23 23 23 23 23 22 21 21 21 21 22 22 23 23 22 22 21 21 20 20 19 19 19 20 21 22 23 23 23 24 24 25 26 27 27 27 27 28 29 29 29 29 30 30 30 29 30 29 29 30 31 32 32 32 33 33 33 34 34 34 35 35 36 36 36 36 35 35 35 35 35 35 35 33 31
28 27 26 26 26 26 25 24 24 26 26 26 25 25 25 25 23 22 22 22 22 22 22 23 24 24 25 24 23 23 22 21 21 21 21 21 21 22 22 23 23 24 25 26 27 28 28 28 28 29 30 30 30 31 31 31 31 32 32 31 31 33 34 33 32 31 32 33 33 32 32 31 32 32 33 33 34 34 34 33 33 34 34 34 33 31 30
28 28 28 27 26 26 24 23 23 26 27 27 26 26 26 26 24 23 23 24 23 22 23 23 24 25 26 26 26 25 25 25 24 24 24 24 24 24 25 25 25 26 26 26 27 28 29 29 29 29 30 31 31 32 32 33 33 33 33 33 33 34 35 35 33 32 33 33 32 31 31 31 31 31 31 32 32 32 32 31 30 30 30 29 29 28 28
27 28 28 28 27 26 25 24 23 24 26 26 25 25 26 25 25 25 25 25 24 24 24 24 24 25 26 27 27 27 27 27 27 27 27 27 27 27 27 28 28 28 28 28 28 29 29 29 29 29 30 30 31 31 32 33 33 33 33 33 33 33 34 34 34 33 32 31 30 31 31 31 31 31 30 30 30 30 30 28 27 27 27 27 27 27 28
28 28 29 28 27 27 27 27 27 27 26 24 22 22 22 23 24 24 24 24 23 23 23 22 23 24 25 26 27 27 27 27 27 27 27 28 29 29 29 30 30 30 30 29 29 30 30 30 30 30 30 31 31 31 31 32 32 32 31 31 31 31 31 32 32 32 31 30 30 30 31 31 30 30 30 29 29 28 27 27 27 28 28 28 28 28 29
28 28 29 29 28 28 27 28 31 33 32 28 24 22 21 22 23 24 24 23 22 22 23 23 23 24 24 25 25 26 26 27 27 27 27 28 29 29 30 30 30 30 30 30 30 30 30 30 30 31 31 31 31 31 31 31 31 30 30 29 29 29 29 30 30 30 31 31 30 30 30 30 30 29 29 29 29 28 27 27 28 28 29 29 29 29 30
27 28 28 29 29 27 26 26 28 30 32 32 30 28 26 25 25 25 25 23 22 22 22 23 23 23 24 25 25 26 26 26 26 27 27 27 28 29 29 29 29 29 29 29 29 29 29 29 29 30 30 30 30 30 30 30 30 30 29 29 29 29 29 29 30 30 31 31 30 30 30 30 29 29 28 28 28 28 27 27 28 29 29 30 30 30 30
26 26 27 29 29 29 30 30 30 30 30 30 30 30 30 30 29 28 27 26 25 25 25 24 24 24 25 25 25 26 26 27 27 27 27 27 27 28 28 28 28 28 28 28 27 27 27 27 27 27 28 28 29 29 29 28 28 28 28 28 29 29 29 29 29 30 30 30 30 30 29 29 28 28 28 28 28 28 27 27 27 28 29 29 29 29 28
28 28 29 30 31 32 34 36 37 37 36 35 33 31 30 30 30 30 30 29 28 28 28 27 27 26 26 26 26 26 26 27 27 28 27 27 27 27 27 27 27 28 28 28 28 27 26 26 26 26 26 26 26 26 26 25 25 25 25 26 26 27 27 27 27 27 27 28 28 28 27 27 26 26 26 27 27 27 27 27 27 27 27 28 29 29 28
Wind_Direction
183 184 184 187 194 200 206 211 211 201 194 197 200 196 190 190 190 186 187 189 185 181 183 191 196 197 201 209 215 215 213 215 221 225 229 233 236 234 231 231 235 234 231 232 236 239 240 238 238 239 239 240 238 235 234 235 238 241 243 245 247 247 249 253 257 260 262 260 260 262 264 267 270 273 274 273 272 271 271 270 271 272 274 275 276 278 279
183 186 190 190 191 195 201 208 212 208 202 201 202 196 186 185 188 188 190 192 187 185 188 194 197 198 198 203 212 216 214 215 219 222 226 230 232 231 229 229 234 237 234 232 233 236 238 237 237 238 238 239 237 234 233 235 239 242 244 246 248 248 251 256 260 262 261 259 259 261 263 266 268 270 271 271 270 268 267 267 269 271 273 275 277 280 282
179 184 191 194 194 196 199 203 209 212 211 209 206 197 185 182 187 189 190 190 189 189 191 192 195 199 198 200 207 211 211 213 219 223 224 225 226 228 229 233 237 237 234 232 231 233 236 237 237 236 235 235 234 232 232 235 238 240 243 245 247 249 254 257 261 263 262 259 258 261 263 265 266 267 268 268 267 266 265 265 266 269 272 274 277 280 283
175 183 190 194 196 199 199 199 203 208 210 211 208 200 190 183 185 189 193 195 194 194 193 192 195 199 201 202 205 210 210 211 217 222 222 220 222 225 227 230 232 232 232 231 229 230 233 236 237 236 235 234 232 231 233 235 238 239 241 244 247 249 253 257 262 264 262 258 258 261 263 264 266 267 267 267 266 264 263 263 265 267 271 274 278 281 284
180 188 194 196 195 196 196 194 196 201 204 207 206 204 201 193 188 191 196 196 195 196 191 186 189 197 203 203 203 206 206 208 213 218 219 220 223 223 223 225 229 231 231 229 227 228 229 232 235 237 236 234 231 230 233 236 237 239 241 244 246 248 253 259 264 263 260 258 259 261 262 263 265 267 267 265 264 263 263 264 266 269 273 277 281 283 285
186 189 195 200 202 201 197 192 191 193 197 202 206 206 206 203 198 197 196 194 197 201 192 184 187 197 203 203 204 205 205 208 210 209 210 216 222 224 225 226 228 230 230 227 224 225 226 230 234 235 234 232 228 228 232 235 237 238 241 243 245 249 256 262 263 259 257 257 258 259 260 261 264 265 264 262 262 263 265 267 270 273 276 279 282 284 285
206 198 211 220 218 214 202 195 194 194 195 199 204 205 205 207 209 208 201 197 203 210 204 194 191 196 200 202 205 208 204 203 205 204 207 217 225 230 233 232 230 232 233 229 226 227 228 230 231 233 232 230 227 228 231 234 236 238 240 242 245 251 257 259 255 253 253 254 256 257 258 259 261 262 262 261 262 263 265 270 274 276 277 279 281 282 284
238 219 236 241 226 210 199 196 198 199 200 201 204 205 203 205 211 214 209 205 209 212 207 197 192 195 200 200 205 210 207 204 209 213 216 222 227 230 233 233 233 234 235 233 231 231 232 230 228 228 229 228 227 228 231 234 236 237 239 241 246 251 251 248 246 249 252 254 254 255 256 258 259 260 261 261 261 263 268 272 275 276 277 278 279 281 282
267 256 270 261 221 202 203 203 202 203 204 203 204 207 204 202 207 214 215 213 215 212 204 195 191 195 199 198 203 209 206 204 208 212 214 219 222 223 226 229 233 235 235 234 230 229 229 228 227 226 226 225 226 227 231 233 235 236 239 242 245 245 242 241 244 249 253 256 257 258 259 260 260 260 262 262 263 266 269 272 274 275 277 278 279 281 283
291 287 290 276 225 201 209 210 208 206 203 203 206 207 204 200 204 212 216 217 218 215 206 200 196 196 195 191 193 198 196 193 194 199 206 212 217 220 223 224 229 235 237 233 226 224 225 226 227 228 225 223 225 227 230 232 233 236 240 242 242 239 237 240 245 252 258 262 264 264 262 261 263 265 265 266 266 267 268 271 273 275 277 279 281 283 285
294 295 293 280 256 237 221 215 215 212 203 204 208 203 197 198 202 209 214 216 219 220 216 212 209 204 194 180 178 190 193 190 189 195 200 204 212 219 221 220 224 229 230 227 221 221 223 226 228 227 223 222 225 227 228 231 234 237 239 240 239 237 237 241 248 257 264 267 270 269 263 263 267 268 267 266 266 267 269 272 274 275 277 280 282 285 286
296 298 298 290 290 311 280 222 218 214 205 202 203 197 191 194 200 206 211 214 218 221 224 225 221 211 194 176 179 199 202 191 187 197 201 200 209 219 223 227 233 232 228 228 227 224 224 225 226 225 222 222 225 226 227 230 232 235 237 239 240 239 240 245 252 261 267 271 274 272 265 265 267 264 264 265 265 268 270 271 272 274 276 280 282 284 286
300 302 302 302 305 314 308 229 213 209 204 202 202 198 194 194 198 202 207 212 216 220 225 228 228 223 209 190 191 217 224 214 211 221 223 217 222 236 243 246 247 243 236 235 234 232 228 224 222 222 221 222 225 226 227 229 231 234 238 240 241 242 245 250 256 263 268 271 271 266 262 263 264 261 261 263 264 265 267 269 272 275 277 280 282 284 286
299 305 307 308 309 318 327 235 206 204 205 207 208 205 201 200 200 199 202 207 212 218 225 228 230 230 227 220 217 227 234 237 241 245 243 239 240 246 253 255 255 253 250 247 243 239 234 225 222 222 223 224 225 225 226 229 232 236 240 242 244 247 250 255 260 263 265 267 266 261 260 262 262 259 258 260 261 264 267 271 274 277 278 280 282 285 288
299 308 313 314 312 319 325 271 216 210 210 210 211 211 208 206 206 203 199 200 203 211 220 226 230 232 233 235 236 237 239 245 249 250 250 250 247 247 250 252 252 252 252 249 244 238 232 225 222 222 223 224 224 225 227 231 235 238 242 245 248 251 254 257 259 259 259 261 260 256 256 256 255 255 257 260 264 267 270 274 276 277 279 281 283 286 288
298 301 307 310 307 321 326 293 232 216 211 210 212 212 208 207 207 205 202 201 201 202 206 214 223 229 233 236 239 241 243 245 247 247 248 250 249 248 250 248 246 247 246 243 237 229 223 221 220 220 221 222 223 225 228 232 236 240 244 247 250 252 255 255 253 252 252 253 251 250 250 252 254 257 261 264 269 272 274 275 276 278 280 282 284 285 285
292 290 289 283 272 294 321 301 250 213 206 212 214 208 205 208 209 207 205 204 203 202 203 205 210 218 226 231 235 239 241 242 243 244 245 246 245 244 243 240 238 239 234 227 223 219 216 216 216 217 219 220 222 226 230 234 238 241 244 247 249 251 250 249 248 247 248 248 248 249 250 253 256 260 265 268 272 274 275 276 277 279 281 282 283 283 283
275 274 277 274 259 254 267 275 249 210 208 215 214 206 203 207 209 210 209 205 203 202 202 202 203 207 214 221 227 232 235 236 238 240 240 241 240 238 236 233 229 227 222 217 216 216 213 212 212 214 217 219 222 226 230 234 238 241 244 246 247 247 245 245 245 245 246 246 248 250 252 255 261 265 269 273 274 275 276 277 278 280 281 282 282 282 282
263 265 274 276 260 256 267 265 226 213 215 216 215 209 204 205 209 212 212 209 208 206 202 201 201 202 206 214 219 224 228 230 231 232 234 238 240 239 236 230 223 220 221 221 220 219 216 216 216 215 217 220 223 227 231 235 239 243 245 245 244 242 240 240 242 244 246 247 250 254 258 263 269 272 275 276 276 277 277 278 279 280 281 281 281 281 282
265 263 267 267 259 272 289 278 219 215 222 220 217 212 205 206 212 216 215 214 215 214 210 209 206 200 199 208 217 221 223 224 226 229 233 238 240 240 236 228 216 211 213 217 219 220 220 220 221 220 220 222 226 229 233 237 241 242 242 240 239 238 238 240 243 246 248 251 255 260 265 270 275 278 278 278 278 279 279 280 280 281 281 282 283 283 284
271 274 277 274 272 281 289 275 227 226 231 223 213 209 207 210 215 220 222 219 217 218 218 218 214 203 197 201 210 216 219 223 227 232 235 236 236 234 231 226 216 209 206 207 210 215 219 221 222 223 223 226 229 232 234 235 235 235 234 235 237 239 242 245 248 251 254 258 262 265 268 273 278 280 280 280 281 282 282 281 281 281 282 283 285 285 285
274 276 277 280 285 285 277 259 237 237 238 233 226 223 222 219 221 227 228 215 210 213 215 215 214 212 208 207 207 210 215 220 227 231 233 232 230 225 222 226 225 216 207 203 203 207 212 217 221 224 226 228 230 232 231 231 229 229 230 234 237 240 244 248 252 255 259 262 265 267 271 275 279 280 280 281 282 282 282 281 281 281 282 282 284 285 284
277 277 278 291 302 292 271 257 252 253 253 248 239 232 228 225 226 231 228 206 197 201 204 206 213 218 218 215 214 214 216 219 224 226 226 227 225 221 220 227 227 217 206 200 198 197 199 203 210 217 223 228 231 232 232 231 230 230 231 233 236 239 244 250 254 258 262 264 266 269 274 277 280 280 280 280 281 280 280 279 280 281 281 282 283 283 283
277 280 283 296 303 286 264 256 256 262 265 253 236 227 225 223 224 226 224 211 198 196 198 204 215 219 218 218 224 227 222 219 219 220 221 221 219 218 224 229 225 217 208 199 196 196 198 200 203 208 215 221 227 231 233 234 233 232 231 232 235 238 243 249 255 259 263 266 268 273 277 280 280 280 279 280 279 278 278 278 279 281 282 282 282 283 283
273 273 274 283 290 279 268 262 254 256 255 234 223 224 223 220 220 222 222 219 212 204 198 197 203 209 210 213 224 231 221 212 212 214 215 215 214 218 225 225 217 212 206 199 199 205 212 216 219 221 222 225 228 231 233 233 233 232 231 233 236 238 242 249 256 260 263 267 272 276 279 280 279 279 279 279 278 278 278 279 281 282 283 283 283 283 282
269 267 266 271 280 285 280 273 271 274 262 231 219 221 220 221 226 228 226 225 221 216 212 210 212 213 209 210 223 237 221 205 210 216 214 213 216 220 220 213 205 202 199 198 201 206 212 217 223 227 230 234 237 239 238 235 234 234 236 238 241 243 246 251 256 260 264 268 273 276 277 278 278 278 277 278 278 278 279 280 282 283 283 283 284 283 283
268 268 269 271 272 272 271 270 271 264 254 246 236 221 218 225 233 233 231 229 225 222 223 225 227 230 228 228 238 250 241 219 215 216 212 212 215 207 197 191 191 191 192 198 207 213 217 220 222 226 232 238 242 245 245 242 241 242 244 245 246 248 251 254 257 261 266 270 274 276 275 274 274 274 275 276 277 277 278 280 283 284 284 284 285 284 283
262 268 277 277 269 262 263 270 273 260 247 251 254 237 225 226 230 232 233 233 230 228 228 229 230 234 237 239 244 250 249 237 227 218 213 218 226 220 209 210 214 209 205 214 222 224 227 231 232 235 238 241 245 249 252 251 250 250 250 251 251 251 254 258 261 265 269 272 275 276 275 273 271 271 273 275 274 275 277 280 282 283 284 284 284 283 281
261 264 273 279 273 265 264 268 270 264 257 260 262 251 239 233 232 232 231 228 228 229 230 232 233 235 238 241 243 246 250 250 244 235 229 234 245 252 251 250 254 257 260 260 253 244 242 242 242 243 244 246 250 254 256 256 255 254 254 254 254 255 257 261 264 267 269 271 273 273 273 273 273 272 273 274 273 273 276 279 280 282 282 282 281 280 279
265 266 268 272 275 275 271 268 266 264 261 259 256 252 245 238 235 235 232 227 227 228 229 233 237 239 240 242 242 243 246 249 251 249 245 246 254 260 263 263 264 264 265 264 261 259 257 255 254 255 255 256 258 260 262 261 260 259 260 260 260 261 263 265 267 269 270 272 274 273 271 272 271 269 271 273 272 272 275 279 279 279 279 279 278 278 278
266 267 269 268 270 273 273 269 265 262 259 257 254 250 247 242 238 236 233 231 233 232 230 232 236 239 240 240 240 241 245 249 252 252 251 251 253 256 259 261 262 262 262 261 260 260 260 260 260 261 260 260 262 263 265 266 266 266 267 268 267 267 268 269 269 269 270 272 275 274 273 274 272 267 266 269 271 274 278 280 278 277 277 277 277 277 277
268 269 270 268 268 271 272 269 265 261 259 258 256 252 248 246 243 239 234 231 232 233 232 232 233 235 235 234 235 239 243 246 250 253 254 254 254 253 254 256 258 260 261 262 261 261 260 260 260 260 261 262 263 264 265 267 268 268 269 269 269 268 268 268 269 271 272 275 276 276 276 277 275 271 269 272 275 278 280 279 276 275 276 276 276 276 276
269 269 270 269 268 269 270 269 266 262 259 258 259 257 253 249 245 240 236 233 232 232 232 232 232 233 234 234 234 237 239 242 245 249 252 254 255 255 254 255 256 257 258 259 260 260 260 260 260 260 261 262 263 264 265 265 264 264 264 265 265 266 267 268 271 274 277 279 279 278 276 275 274 273 275 276 276 276 276 276 275 274 275 275 275 276 277
268 268 270 269 268 267 267 267 265 262 258 257 259 259 256 251 246 243 240 238 236 234 234 233 232 232 234 236 237 239 241 243 244 245 248 250 253 255 256 256 256 256 257 257 257 258 258 258 259 259 260 261 263 264 264 262 261 261 262 264 266 268 271 274 277 279 280 281 279 277 275 273 273 274 274 274 273 273 273 273 273 272 273 273 273 274 276
274 270 267 266 267 268 267 265 263 261 259 255 254 255 256 253 249 244 242 241 241 238 236 235 234 235 237 239 241 242 244 245 245 245 246 247 249 252 254 256 258 258 259 259 259 259 259 259 258 258 258 259 261 262 262 262 263 266 267 268 271 274 276 278 279 280 279 277 276 275 273 272 271 272 272 271 271 271 272 271 271 272 272 272 271 272 276
272 269 263 261 262 264 264 263 261 259 257 253 251 252 254 254 250 247 244 244 244 243 240 237 236 237 239 240 242 243 243 244 244 245 245 246 246 247 248 251 253 256 258 260 261 261 262 262 260 258 256 257 258 260 261 263 267 270 272 273 274 275 276 276 276 275 274 273 272 272 271 270 270 269 268 268 269 270 271 271 271 272 272 272 272 273 275
254 269 269 264 260 259 259 261 261 259 257 255 253 251 252 252 251 249 248 247 247 246 245 243 241 240 240 241 242 242 242 242 243 244 245 246 247 246 246 247 248 250 252 255 257 258 259 261 261 259 257 257 258 260 262 265 269 271 271 271 271 271 270 270 269 269 269 269 269 269 268 268 269 269 269 269 270 270 270 271 271 272 272 272 272 274 275
255 265 263 258 258 258 258 258 258 257 255 255 254 253 253 253 252 250 247 246 246 245 245 245 244 243 243 244 244 244 242 242 243 244 245 246 247 248 248 247 246 247 249 251 253 254 255 256 258 258 258 259 260 262 264 266 266 265 264 264 265 265 265 266 266 266 266 267 268 268 268 269 269 270 270 271 271 270 270 270 271 271 271 271 272 273 273
258 258 251 252 263 271 268 263 261 258 256 253 251 249 249 251 254 254 252 249 246 245 244 244 243 243 243 245 247 248 247 246 246 247 247 247 247 247 247 248 247 247 248 250 252 253 255 256 256 257 258 258 259 260 261 261 260 258 257 258 260 262 264 265 266 266 266 267 267 267 268 270 270 271 271 270 270 269 269 270 270 271 272 273 274 274 275
255 257 259 263 270 273 272 268 264 260 257 254 251 248 247 248 251 254 254 252 249 247 247 246 245 244 245 246 247 249 250 251 251 250 250 249 248 247 247 248 249 249 249 250 250 251 252 252 252 253 253 254 255 255 256 257 258 258 257 257 256 258 260 263 266 267 266 266 266 268 270 271 271 270 270 270 271 271 272 272 272 273 274 275 276 278 279
253 257 262 265 267 268 268 268 266 263 258 255 254 254 255 255 255 254 252 250 248 248 248 247 246 244 243 243 245 247 250 252 253 252 251 250 249 247 246 245 246 246 245 245 245 246 247 248 249 251 253 254 255 256 256 256 257 257 258 258 257 256 256 259 263 266 267 267 268 269 269 269 269 270 271 273 274 275 275 275 275 275 276 277 278 280 281
255 255 257 259 260 258 258 262 267 267 265 261 259 258 258 260 260 258 255 252 249 249 249 248 246 243 241 240 242 245 248 251 254 254 252 249 247 245 244 243 243 243 242 242 243 245 247 249 251 253 255 256 257 258 258 257 257 258 260 261 261 260 259 259 260 263 266 267 267 267 267 268 269 270 272 274 275 275 275 275 275 275 276 277 277 279 282
255 252 252 254 254 252 253 259 266 269 269 266 263 261 260 260 260 260 258 255 251 248 247 245 246 246 244 242 242 244 246 248 250 252 250 246 243 242 242 242 242 242 242 243 244 245 247 248 250 252 253 254 256 257 259 260 261 262 263 263 263 263 262 261 261 262 264 266 267 267 267 268 269 270 271 273 274 274 274 274 274 274 274 275 275 278 280
256 253 251 250 249 251 255 261 266 267 268 266 263 261 259 257 257 257 258 256 252 249 248 247 247 248 248 246 245 245 246 247 248 247 246 244 243 242 241 241 242 242 242 244 246 247 249 250 251 253 255 256 257 258 259 261 263 264 264 265 265 264 263 263 263 264 265 266 267 268 269 269 270 271 272 273 273 274 273 273 272 273 273 275 276 278 278
257 256 254 250 248 250 254 261 265 266 267 267 266 262 259 257 257 256 255 254 253 252 251 250 250 250 251 251 249 247 247 248 248 247 246 245 245 245 244 244 244 244 245 246 248 250 251 252 253 255 257 258 259 259 260 262 263 264 264 265 266 266 265 265 265 265 265 266 268 269 270 272 272 273 273 273 273 273 274 273 273 273 274 275 275 276 275
257 257 256 254 251 248 248 253 261 264 264 264 264 260 256 255 255 255 254 254 255 254 253 252 251 251 252 252 252 251 250 249 248 248 248 247 247 247 248 248 248 248 248 249 250 252 253 254 254 255 256 257 259 260 261 262 262 263 264 264 265 266 267 268 267 265 265 266 267 267 269 272 273 273 273 272 273 273 273 273 273 272 272 272 272 272 272
257 257 256 256 254 249 245 246 253 258 257 255 256 258 257 255 254 253 253 253 253 253 253 252 252 251 252 252 252 251 251 251 251 251 251 250 250 250 250 250 251 251 251 251 252 253 254 255 256 256 257 257 258 259 260 261 261 262 262 263 263 264 265 266 266 266 265 265 266 267 268 270 272 273 273 273 273 274 274 273 271 270 269 268 268 269 270
257 256 255 254 253 249 244 243 245 249 249 248 250 254 257 257 257 256 255 254 253 252 252 252 250 249 250 251 252 252 252 252 252 253 253 253 252 252 251 251 252 252 253 253 253 254 255 256 257 258 258 258 259 259 259 260 261 261 262 262 262 262 263 264 265 267 267 267 268 269 270 271 272 273 273 273 272 272 271 271 270 269 268 268 269 270 271
255 255 254 252 250 246 243 244 248 251 253 255 256 255 255 257 259 259 258 257 254 253 252 252 250 249 247 248 249 250 250 249 250 250 251 251 251 252 252 252 252 252 253 253 253 253 254 255 256 257 258 258 259 259 260 260 260 261 261 261 261 261 261 262 263 265 267 268 268 269 270 270 271 272 272 272 272 272 272 272 271 271 271 271 272 272 273
254 254 255 254 251 245 241 243 249 252 254 255 256 256 256 257 259 259 259 258 257 255 254 253 253 252 251 249 248 248 248 248 248 248 248 249 249 250 250 251 251 252 252 253 254 254 255 255 256 257 257 258 258 259 259 260 260 260 260 260 260 260 260 260 261 262 263 264 265 266 267 268 269 270 271 272 272 273 274 274 274 274 275 275 275 274 274
253 254 255 254 251 244 237 236 240 247 251 254 255 256 257 258 257 257 257 258 258 258 257 256 255 254 254 253 252 251 250 249 248 248 248 248 248 249 250 251 251 251 251 252 253 254 255 256 257 257 258 259 259 260 260 261 261 261 261 261 261 261 261 261 262 262 262 263 264 265 265 266 267 269 270 270 271 271 271 272 272 273 274 274 275 275 275
256 258 259 258 256 249 241 238 240 246 252 256 257 258 258 257 256 255 255 256 256 257 258 257 256 255 254 253 253 253 252 251 251 251 250 249 249 249 250 251 252 253 254 254 254 254 254 254 254 255 256 257 259 260 261 262 264 265 264 264 264 265 266 266 266 266 266 266 267 267 268 269 269 269 270 270 271 271 271 271 271 272 272 273 274 274 274
Height
5602 5605 5608 5611 5614 5617 5619 5622 5626 5630 5632 5634 5636 5640 5643 5645 5647 5652 5657 5660 5662 5666 5669 5671 5675 5680 5682 5685 5688 5693 5697 5700 5703 5706 5709 5711 5713 5716 5721 5725 5727 5731 5735 5738 5740 5742 5744 5745 5747 5749 5752 5754 5756 5758 5759 5761 5763 5765 5766 5768 5769 5770 5771 5772 5773 5774 5775 5775 5776 5776 5778 5778 5778 5779 5779 5780 5780 5780 5780 5779 5779 5779 5780 5780 5780 5780 5779
5605 5607 5609 5611 5614 5616 5618 5620 5624 5628 5631 5634 5636 5639 5640 5642 5646 5652 5655 5657 5659 5660 5663 5667 5672 5676 5678 5680 5683 5688 5692 5695 5698 5701 5704 5707 5710 5713 5717 5720 5723 5727 5730 5732 5735 5737 5738 5740 5743 5746 5749 5751 5752 5754 5756 5757 5759 5761 5763 5764 5766 5767 5767 5768 5770 5771 5772 5773 5773 5773 5774 5775 5775 5776 5776 5777 5777 5777 5777 5777 5776 5777 5777 5777 5777 5777 5776
5605 5607 5610 5611 5612 5614 5616 5618 5621 5625 5629 5632 5635 5637 5638 5641 5646 5650 5651 5653 5655 5657 5659 5663 5668 5672 5675 5677 5679 5683 5688 5691 5693 5695 5699 5703 5706 5710 5713 5716 5719 5722 5724 5727 5730 5732 5735 5737 5740 5743 5745 5747 5748 5751 5753 5754 5756 5758 5759 5761 5762 5763 5764 5765 5766 5768 5769 5770 5770 5770 5771 5772 5772 5772 5773 5774 5774 5774 5774 5774 5774 5774 5774 5774 5774 5773 5772
5605 5607 5608 5609 5610 5612 5613 5616 5619 5623 5627 5631 5634 5636 5638 5640 5643 5646 5647 5649 5652 5656 5659 5661 5665 5669 5673 5675 5677 5680 5684 5688 5690 5691 5694 5698 5702 5705 5709 5712 5715 5717 5720 5723 5726 5729 5732 5735 5737 5739 5741 5743 5745 5748 5750 5752 5753 5754 5756 5757 5759 5760 5761 5762 5763 5765 5766 5766 5767 5767 5768 5769 5769 5769 5770 5771 5771 5771 5771 5771 5771 5771 5771 5771 5771 5770 5769
5605 5607 5608 5609 5610 5610 5612 5615 5618 5622 5626 5630 5633 5635 5638 5640 5641 5642 5645 5648 5652 5655 5656 5658 5662 5666 5669 5672 5674 5676 5680 5683 5685 5688 5692 5696 5699 5702 5705 5709 5711 5713 5716 5720 5723 5726 5729 5731 5734 5736 5738 5739 5742 5745 5747 5748 5750 5751 5752 5754 5756 5756 5757 5759 5761 5762 5762 5763 5763 5764 5765 5765 5766 5766 5767 5768 5768 5768 5767 5767 5768 5768 5768 5767 5767 5766 5766
5606 5607 5609 5610 5610 5611 5614 5616 5617 5619 5623 5627 5630 5632 5636 5640 5640 5640 5643 5647 5650 5653 5654 5655 5659 5663 5665 5668 5670 5673 5678 5680 5681 5684 5688 5692 5695 5698 5702 5706 5708 5710 5713 5716 5719 5721 5724 5728 5730 5732 5733 5735 5738 5740 5743 5745 5746 5748 5749 5751 5752 5753 5755 5756 5758 5759 5759 5759 5760 5761 5762 5762 5763 5763 5764 5765 5765 5764 5764 5764 5764 5765 5764 5764 5763 5763 5762
5606 5608 5610 5611 5611 5613 5615 5617 5618 5619 5621 5622 5625 5628 5632 5636 5637 5639 5641 5644 5647 5650 5651 5652 5656 5660 5663 5665 5667 5669 5672 5675 5678 5681 5685 5688 5691 5694 5697 5701 5704 5706 5709 5712 5715 5718 5721 5724 5726 5727 5729 5732 5734 5737 5739 5741 5743 5744 5746 5747 5748 5750 5752 5754 5755 5755 5755 5756 5757 5758 5758 5759 5759 5760 5761 5761 5761 5761 5760 5760 5761 5761 5761 5760 5760 5759 5758
5606 5608 5609 5610 5611 5613 5615 5616 5617 5618 5620 5621 5622 5624 5627 5631 5634 5637 5640 5642 5645 5647 5648 5650 5654 5658 5660 5662 5664 5664 5667 5671 5675 5679 5683 5686 5688 5691 5694 5697 5700 5703 5705 5708 5711 5715 5718 5720 5722 5724 5726 5728 5731 5734 5736 5738 5739 5741 5742 5743 5745 5747 5749 5751 5752 5752 5752 5753 5754 5754 5755 5755 5756 5757 5757 5758 5758 5757 5757 5757 5757 5757 5757 5756 5756 5756 5755
5607 5607 5608 5609 5610 5612 5614 5615 5615 5616 5618 5620 5621 5622 5625 5629 5633 5636 5639 5642 5644 5646 5647 5649 5651 5654 5656 5659 5661 5663 5666 5671 5675 5677 5680 5683 5685 5688 5691 5693 5696 5699 5701 5704 5708 5711 5714 5716 5718 5720 5722 5724 5727 5730 5732 5734 5736 5737 5738 5739 5742 5744 5746 5747 5748 5749 5749 5750 5750 5751 5751 5752 5752 5753 5754 5754 5754 5753 5753 5753 5753 5753 5753 5753 5752 5752 5752
5607 5608 5607 5608 5609 5611 5613 5613 5613 5613 5615 5617 5618 5621 5625 5628 5632 5635 5638 5640 5642 5644 5646 5648 5649 5650 5652 5656 5660 5662 5665 5669 5672 5675 5677 5679 5682 5685 5688 5691 5694 5696 5698 5701 5704 5706 5709 5711 5714 5716 5718 5721 5723 5726 5728 5730 5731 5733 5734 5736 5739 5741 5743 5744 5745 5745 5747 5747 5747 5747 5747 5747 5748 5749 5750 5750 5750 5750 5750 5750 5750 5749 5749 5749 5749 5749 5748
5608 5607 5607 5607 5608 5610 5611 5612 5611 5612 5613 5615 5617 5620 5624 5627 5631 5634 5635 5637 5640 5643 5646 5648 5649 5649 5651 5655 5659 5662 5665 5667 5670 5672 5674 5677 5679 5682 5685 5689 5692 5694 5697 5699 5700 5702 5704 5707 5710 5712 5715 5717 5720 5722 5724 5726 5728 5729 5731 5733 5735 5737 5739 5740 5741 5742 5743 5744 5744 5744 5743 5743 5744 5745 5746 5746 5746 5746 5746 5746 5746 5746 5746 5745 5745 5745 5744
5608 5607 5606 5607 5608 5608 5609 5609 5609 5610 5612 5614 5615 5618 5621 5624 5627 5630 5633 5636 5639 5642 5645 5646 5648 5650 5653 5656 5658 5661 5664 5667 5669 5671 5673 5676 5678 5681 5684 5688 5690 5692 5695 5697 5699 5700 5702 5704 5706 5709 5711 5714 5716 5718 5720 5722 5724 5725 5727 5728 5731 5733 5735 5736 5738 5739 5740 5740 5740 5740 5739 5739 5741 5742 5742 5742 5742 5742 5742 5743 5743 5743 5742 5742 5741 5740 5739
5607 5607 5606 5607 5607 5607 5607 5607 5608 5609 5611 5612 5613 5616 5619 5622 5624 5626 5629 5634 5638 5641 5643 5644 5647 5651 5654 5656 5657 5659 5662 5664 5668 5670 5671 5674 5677 5679 5682 5685 5687 5690 5692 5694 5696 5698 5699 5701 5703 5705 5708 5710 5712 5715 5717 5719 5720 5721 5723 5725 5727 5729 5731 5733 5734 5735 5736 5736 5736 5736 5736 5737 5737 5738 5738 5739 5739 5739 5739 5739 5739 5739 5739 5738 5737 5736 5735
5607 5607 5607 5607 5607 5606 5606 5607 5607 5608 5610 5611 5613 5615 5618 5621 5622 5624 5626 5630 5634 5639 5641 5643 5647 5650 5652 5654 5656 5658 5659 5661 5665 5668 5669 5671 5675 5677 5679 5681 5684 5686 5688 5690 5692 5694 5696 5698 5700 5702 5704 5707 5709 5711 5713 5714 5716 5717 5719 5721 5724 5726 5727 5728 5730 5730 5731 5732 5733 5733 5733 5734 5734 5735 5735 5736 5736 5736 5736 5736 5736 5735 5734 5734 5732 5731 5731
5607 5607 5607 5607 5607 5606 5606 5606 5607 5608 5609 5611 5614 5616 5618 5620 5622 5624 5626 5628 5631 5634 5637 5641 5645 5648 5650 5653 5655 5656 5657 5660 5663 5666 5666 5669 5672 5675 5676 5678 5680 5682 5683 5685 5688 5690 5692 5694 5696 5698 5701 5703 5705 5707 5709 5710 5711 5713 5716 5718 5720 5721 5723 5724 5725 5726 5726 5728 5729 5729 5730 5730 5731 5731 5732 5732 5732 5732 5732 5732 5732 5731 5730 5729 5728 5727 5726
5607 5607 5606 5606 5606 5606 5605 5606 5607 5607 5609 5611 5613 5614 5616 5618 5620 5622 5625 5627 5628 5629 5633 5637 5642 5646 5648 5650 5652 5654 5656 5658 5661 5662 5664 5666 5669 5671 5673 5675 5676 5677 5678 5681 5683 5685 5687 5689 5692 5694 5696 5699 5701 5703 5704 5706 5708 5710 5712 5714 5715 5717 5718 5720 5721 5721 5722 5723 5725 5725 5726 5727 5727 5727 5728 5728 5728 5728 5728 5728 5727 5726 5725 5725 5724 5723 5722
5607 5607 5606 5605 5605 5604 5605 5606 5607 5607 5609 5611 5612 5613 5614 5616 5618 5620 5622 5624 5625 5627 5630 5634 5637 5641 5644 5647 5650 5652 5653 5656 5657 5659 5661 5663 5664 5664 5666 5669 5671 5672 5673 5675 5678 5681 5683 5685 5688 5690 5692 5695 5697 5699 5700 5702 5704 5706 5708 5710 5711 5713 5714 5715 5716 5717 5718 5720 5721 5722 5722 5723 5723 5724 5724 5724 5724 5724 5724 5723 5722 5721 5721 5720 5719 5718 5717
5607 5606 5605 5605 5603 5602 5604 5606 5607 5607 5608 5610 5611 5612 5614 5616 5617 5619 5621 5622 5622 5624 5626 5629 5632 5636 5640 5643 5646 5648 5649 5652 5654 5656 5657 5657 5657 5658 5660 5662 5665 5667 5669 5671 5673 5676 5679 5681 5684 5686 5688 5691 5693 5695 5697 5699 5701 5702 5704 5705 5707 5708 5710 5711 5712 5713 5715 5716 5717 5718 5719 5719 5720 5720 5720 5720 5720 5720 5719 5718 5717 5716 5716 5715 5714 5713 5712
5606 5605 5605 5604 5604 5603 5603 5606 5607 5607 5608 5609 5610 5611 5612 5614 5616 5618 5619 5620 5621 5621 5622 5625 5628 5631 5635 5639 5641 5643 5645 5648 5650 5651 5650 5650 5653 5658 5660 5660 5660 5661 5664 5667 5669 5672 5675 5677 5680 5682 5685 5688 5690 5691 5693 5695 5697 5698 5700 5701 5703 5704 5705 5706 5708 5709 5711 5712 5713 5714 5714 5715 5715 5716 5716 5715 5715 5715 5714 5713 5712 5711 5711 5709 5709 5708 5707
5604 5605 5604 5604 5604 5604 5604 5604 5606 5607 5608 5609 5609 5610 5611 5612 5614 5615 5617 5618 5620 5620 5621 5625 5626 5626 5628 5632 5635 5638 5641 5643 5644 5645 5646 5648 5652 5656 5659 5659 5658 5658 5659 5661 5664 5668 5671 5674 5677 5680 5682 5684 5686 5688 5690 5692 5693 5695 5696 5698 5698 5699 5701 5702 5704 5705 5707 5708 5709 5709 5710 5711 5711 5711 5711 5711 5710 5710 5709 5708 5707 5706 5705 5704 5703 5702 5702
5603 5604 5603 5603 5604 5604 5604 5604 5605 5606 5607 5608 5609 5610 5610 5611 5612 5614 5615 5616 5617 5619 5621 5624 5626 5625 5624 5626 5629 5633 5636 5638 5639 5640 5643 5647 5650 5651 5654 5657 5658 5658 5657 5657 5659 5663 5668 5671 5674 5677 5679 5681 5683 5685 5687 5688 5690 5692 5693 5694 5695 5696 5697 5698 5700 5701 5702 5703 5704 5705 5706 5706 5707 5707 5706 5705 5705 5704 5703 5702 5701 5701 5700 5699 5698 5698 5697
5602 5602 5602 5603 5603 5603 5603 5604 5605 5605 5605 5607 5608 5609 5609 5609 5610 5612 5612 5612 5614 5616 5619 5622 5625 5625 5624 5625 5626 5629 5632 5634 5636 5637 5640 5643 5646 5647 5650 5653 5655 5656 5656 5654 5654 5658 5663 5667 5670 5674 5676 5678 5680 5682 5683 5685 5687 5688 5690 5691 5692 5693 5693 5695 5696 5697 5698 5699 5700 5700 5701 5702 5702 5702 5701 5700 5699 5698 5697 5696 5696 5696 5695 5694 5694 5693 5693
5602 5602 5602 5603 5603 5602 5603 5604 5605 5605 5605 5606 5607 5607 5607 5608 5609 5611 5612 5612 5613 5615 5618 5621 5623 5624 5625 5625 5626 5628 5630 5630 5631 5633 5637 5640 5642 5645 5648 5651 5652 5653 5654 5652 5651 5653 5657 5662 5666 5670 5673 5675 5678 5679 5681 5682 5684 5685 5686 5688 5689 5689 5690 5691 5692 5693 5693 5694 5695 5696 5697 5697 5697 5696 5696 5695 5694 5693 5693 5692 5691 5691 5690 5690 5689 5689 5688
5603 5603 5603 5603 5603 5602 5603 5603 5604 5604 5605 5605 5606 5607 5607 5607 5608 5609 5611 5613 5614 5615 5618 5621 5621 5621 5622 5625 5627 5629 5630 5629 5627 5628 5633 5637 5640 5643 5645 5647 5649 5651 5652 5651 5649 5651 5655 5658 5662 5666 5669 5671 5674 5676 5678 5680 5681 5682 5684 5685 5685 5685 5686 5687 5687 5688 5689 5690 5690 5691 5691 5691 5691 5691 5690 5690 5689 5688 5688 5688 5687 5687 5686 5685 5684 5684 5683
5602 5602 5602 5603 5603 5603 5602 5602 5602 5603 5604 5605 5606 5606 5607 5607 5608 5609 5610 5613 5615 5617 5619 5620 5619 5618 5620 5623 5627 5628 5628 5626 5624 5626 5630 5634 5637 5641 5643 5644 5646 5649 5650 5648 5647 5649 5653 5657 5660 5663 5665 5667 5670 5672 5674 5676 5677 5679 5680 5681 5681 5681 5682 5682 5682 5683 5683 5684 5685 5686 5686 5685 5685 5685 5685 5684 5684 5683 5684 5684 5683 5682 5681 5680 5680 5680 5679
5601 5601 5601 5602 5603 5603 5602 5601 5602 5603 5603 5604 5605 5606 5606 5607 5608 5608 5609 5611 5613 5616 5617 5619 5620 5620 5620 5622 5624 5625 5625 5625 5624 5626 5629 5632 5634 5637 5640 5642 5644 5646 5647 5645 5644 5646 5651 5654 5657 5660 5663 5664 5666 5668 5670 5672 5673 5674 5676 5677 5677 5677 5678 5677 5677 5677 5678 5679 5680 5680 5680 5680 5679 5679 5679 5679 5679 5679 5679 5679 5678 5678 5677 5676 5676 5675 5675
5599 5599 5600 5601 5601 5601 5600 5600 5601 5602 5602 5603 5604 5605 5606 5606 5607 5608 5609 5610 5611 5613 5615 5617 5619 5620 5621 5621 5621 5621 5623 5625 5626 5628 5630 5631 5632 5635 5637 5640 5643 5645 5644 5642 5641 5645 5649 5652 5655 5657 5659 5661 5663 5665 5667 5668 5669 5670 5671 5672 5673 5673 5673 5673 5673 5673 5674 5675 5675 5675 5674 5674 5673 5673 5674 5674 5674 5674 5674 5674 5674 5673 5672 5671 5671 5671 5670
5597 5598 5599 5599 5600 5600 5599 5598 5599 5600 5600 5601 5602 5604 5605 5606 5606 5607 5608 5609 5610 5611 5613 5615 5617 5618 5619 5619 5619 5619 5621 5623 5626 5628 5629 5630 5631 5633 5636 5638 5641 5643 5643 5642 5642 5644 5647 5650 5653 5655 5657 5659 5661 5663 5664 5665 5665 5666 5667 5668 5668 5668 5668 5668 5668 5668 5669 5670 5670 5670 5669 5669 5669 5669 5669 5669 5670 5669 5669 5669 5669 5668 5667 5667 5667 5666 5665
5596 5597 5597 5598 5598 5598 5598 5597 5597 5598 5599 5599 5601 5603 5604 5605 5606 5606 5607 5608 5609 5610 5611 5613 5615 5616 5617 5617 5617 5617 5618 5620 5623 5625 5627 5627 5628 5630 5632 5634 5636 5638 5640 5641 5642 5644 5646 5648 5650 5652 5655 5656 5658 5659 5660 5661 5662 5662 5662 5663 5663 5663 5663 5663 5663 5663 5664 5665 5665 5665 5665 5666 5666 5666 5665 5665 5665 5665 5665 5664 5663 5663 5663 5662 5662 5661 5660
5594 5594 5595 5596 5597 5597 5596 5596 5596 5597 5597 5598 5599 5601 5602 5603 5604 5606 5606 5608 5609 5609 5610 5611 5612 5614 5614 5615 5615 5615 5616 5617 5620 5622 5624 5625 5625 5626 5628 5630 5632 5634 5636 5638 5640 5642 5644 5645 5647 5649 5651 5652 5653 5654 5655 5656 5657 5657 5657 5657 5657 5657 5658 5658 5658 5658 5659 5660 5660 5660 5660 5660 5661 5661 5660 5660 5660 5660 5660 5659 5658 5658 5658 5657 5657 5656 5655
5592 5592 5592 5593 5594 5594 5594 5594 5595 5595 5596 5596 5597 5599 5600 5602 5603 5604 5605 5606 5607 5608 5609 5610 5611 5611 5612 5613 5614 5614 5614 5615 5617 5619 5621 5623 5624 5625 5626 5628 5630 5631 5633 5635 5637 5639 5640 5642 5643 5645 5646 5648 5649 5649 5650 5650 5651 5652 5652 5652 5652 5652 5652 5653 5653 5653 5654 5654 5655 5655 5655 5654 5655 5655 5655 5655 5655 5655 5654 5654 5653 5653 5652 5652 5652 5651 5650
5591 5590 5590 5590 5591 5592 5592 5592 5593 5593 5594 5594 5595 5596 5598 5600 5601 5603 5604 5605 5605 5606 5607 5608 5609 5610 5611 5612 5613 5613 5614 5614 5615 5616 5617 5619 5622 5623 5625 5626 5627 5628 5630 5631 5632 5634 5636 5637 5639 5640 5641 5643 5644 5645 5645 5646 5646 5646 5646 5646 5646 5647 5647 5647 5647 5648 5649 5649 5649 5649 5649 5649 5649 5650 5650 5650 5650 5649 5649 5648 5648 5648 5648 5647 5646 5646 5646
5589 5589 5587 5587 5588 5589 5589 5590 5590 5591 5592 5592 5592 5593 5595 5597 5598 5600 5601 5602 5603 5604 5605 5606 5608 5609 5610 5611 5612 5613 5614 5614 5614 5614 5614 5615 5616 5618 5620 5622 5624 5624 5625 5626 5628 5629 5631 5632 5633 5634 5636 5637 5638 5639 5639 5640 5640 5640 5640 5640 5641 5641 5641 5642 5642 5642 5643 5643 5643 5643 5644 5644 5644 5644 5644 5644 5644 5644 5644 5644 5643 5643 5643 5643 5642 5641 5641
5586 5586 5586 5586 5586 5586 5586 5587 5588 5588 5589 5590 5589 5590 5592 5594 5595 5596 5597 5599 5600 5601 5603 5604 5606 5607 5608 5610 5611 5611 5612 5612 5613 5614 5613 5613 5613 5614 5615 5616 5618 5619 5620 5621 5622 5624 5625 5626 5627 5629 5630 5631 5631 5632 5632 5633 5633 5633 5634 5634 5635 5635 5636 5636 5636 5636 5637 5637 5637 5637 5638 5638 5638 5638 5639 5639 5639 5638 5638 5639 5638 5638 5638 5638 5638 5636 5636
5581 5582 5583 5584 5583 5583 5583 5584 5585 5585 5586 5587 5587 5587 5589 5590 5592 5593 5594 5595 5597 5598 5600 5601 5603 5604 5605 5606 5608 5608 5609 5610 5610 5611 5611 5611 5611 5611 5611 5612 5612 5613 5614 5615 5617 5618 5619 5620 5621 5623 5624 5625 5625 5626 5626 5627 5628 5628 5628 5629 5630 5630 5630 5630 5630 5630 5631 5632 5632 5632 5632 5633 5633 5633 5633 5633 5633 5633 5633 5634 5633 5633 5633 5633 5633 5632 5632
5578 5578 5579 5580 5580 5580 5580 5580 5581 5582 5583 5584 5584 5585 5585 5586 5587 5589 5590 5591 5592 5594 5595 5597 5599 5600 5601 5602 5603 5604 5605 5605 5606 5607 5608 5608 5608 5609 5610 5610 5610 5610 5611 5611 5612 5613 5613 5614 5615 5617 5618 5619 5620 5620 5621 5623 5623 5622 5622 5623 5624 5624 5624 5625 5625 5625 5626 5626 5626 5627 5627 5628 5628 5628 5628 5628 5628 5629 5629 5628 5629 5629 5628 5628 5628 5628 5627
5575 5575 5575 5575 5576 5577 5577 5577 5578 5578 5579 5580 5581 5581 5582 5582 5583 5584 5586 5587 5587 5589 5591 5593 5594 5595 5597 5598 5599 5600 5600 5601 5602 5603 5603 5604 5605 5606 5607 5607 5607 5608 5608 5608 5608 5609 5610 5610 5611 5612 5613 5614 5615 5616 5617 5619 5619 5617 5617 5618 5619 5619 5619 5620 5620 5620 5620 5621 5621 5622 5622 5622 5623 5623 5623 5623 5623 5623 5623 5623 5623 5623 5624 5624 5623 5623 5622
5572 5572 5572 5572 5572 5573 5573 5574 5575 5575 5575 5576 5577 5578 5578 5578 5579 5580 5581 5581 5582 5584 5586 5587 5588 5590 5592 5593 5594 5594 5595 5596 5597 5598 5598 5599 5600 5601 5602 5603 5604 5604 5604 5604 5605 5606 5606 5606 5607 5608 5609 5610 5611 5611 5613 5614 5614 5613 5613 5614 5614 5614 5614 5615 5615 5615 5616 5616 5616 5617 5617 5617 5617 5618 5618 5618 5618 5618 5618 5618 5618 5618 5618 5618 5618 5618 5616
5569 5569 5570 5569 5569 5570 5571 5571 5571 5572 5573 5573 5574 5574 5574 5574 5575 5576 5576 5577 5577 5579 5579 5580 5582 5584 5586 5587 5588 5588 5589 5590 5592 5592 5592 5593 5595 5596 5597 5597 5598 5599 5600 5600 5601 5602 5602 5603 5603 5604 5605 5605 5606 5607 5608 5608 5608 5608 5609 5610 5610 5610 5610 5609 5610 5610 5611 5611 5611 5611 5612 5612 5612 5612 5613 5613 5613 5613 5613 5613 5613 5613 5613 5612 5612 5611 5611
5566 5566 5567 5567 5567 5567 5568 5568 5568 5569 5569 5570 5571 5571 5571 5571 5572 5573 5573 5573 5574 5574 5574 5575 5577 5578 5580 5581 5582 5583 5583 5584 5585 5586 5586 5588 5590 5591 5591 5592 5594 5595 5595 5596 5597 5598 5598 5598 5598 5599 5599 5600 5601 5602 5603 5603 5603 5603 5604 5605 5605 5606 5605 5605 5605 5605 5606 5606 5606 5607 5607 5607 5607 5607 5607 5607 5608 5608 5608 5608 5608 5608 5607 5607 5606 5605 5605
5562 5563 5564 5564 5564 5565 5565 5565 5565 5565 5565 5566 5567 5567 5567 5568 5569 5570 5570 5570 5571 5571 5571 5572 5573 5574 5575 5576 5577 5578 5578 5579 5579 5580 5581 5583 5585 5586 5587 5588 5589 5590 5591 5592 5592 5592 5593 5593 5593 5594 5595 5596 5597 5598 5599 5599 5599 5599 5599 5600 5601 5601 5602 5601 5601 5601 5601 5602 5602 5603 5603 5602 5602 5602 5603 5603 5603 5603 5603 5603 5603 5603 5602 5602 5602 5601 5600
5558 5559 5560 5560 5561 5562 5562 5562 5562 5562 5562 5562 5563 5563 5563 5564 5566 5566 5567 5568 5568 5569 5569 5569 5569 5570 5571 5572 5573 5573 5574 5574 5575 5576 5577 5578 5580 5581 5583 5584 5585 5585 5586 5587 5587 5588 5588 5589 5590 5590 5591 5591 5592 5593 5593 5594 5594 5595 5595 5596 5597 5597 5597 5597 5597 5596 5596 5597 5598 5598 5598 5598 5597 5598 5598 5598 5598 5598 5598 5598 5598 5598 5597 5597 5597 5597 5596
5553 5555 5556 5557 5557 5558 5558 5558 5558 5558 5559 5559 5559 5559 5560 5561 5561 5562 5563 5564 5565 5566 5566 5566 5566 5567 5567 5568 5569 5570 5570 5571 5571 5573 5573 5574 5575 5576 5578 5579 5580 5581 5582 5582 5583 5583 5584 5585 5585 5586 5586 5587 5588 5588 5588 5588 5589 5590 5591 5591 5592 5592 5592 5592 5592 5592 5592 5592 5592 5593 5593 5593 5592 5592 5593 5593 5592 5592 5592 5592 5591 5591 5591 5591 5591 5591 5590
5549 5551 5552 5553 5553 5554 5554 5554 5555 5555 5555 5556 5556 5556 5556 5556 5557 5559 5560 5560 5561 5562 5562 5563 5563 5564 5564 5565 5565 5566 5567 5568 5569 5570 5570 5570 5571 5573 5574 5575 5576 5577 5578 5578 5579 5579 5580 5581 5581 5582 5582 5583 5584 5584 5584 5584 5585 5585 5585 5586 5587 5587 5586 5586 5586 5587 5587 5587 5586 5587 5587 5587 5587 5587 5587 5587 5586 5586 5586 5586 5585 5585 5585 5585 5585 5585 5585
5545 5546 5547 5548 5549 5550 5551 5551 5551 5551 5551 5552 5552 5553 5552 5552 5554 5555 5555 5556 5556 5557 5558 5559 5559 5560 5560 5561 5561 5562 5563 5565 5565 5566 5567 5568 5568 5569 5570 5571 5572 5573 5574 5575 5575 5575 5576 5577 5577 5577 5577 5578 5578 5579 5579 5579 5580 5580 5580 5581 5581 5580 5580 5581 5582 5582 5582 5582 5582 5581 5581 5582 5582 5582 5581 5581 5580 5580 5580 5580 5580 5579 5579 5579 5579 5579 5579
5541 5541 5543 5544 5545 5546 5547 5548 5548 5547 5546 5547 5548 5549 5549 5549 5550 5551 5551 5551 5552 5553 5554 5554 5555 5556 5556 5557 5557 5558 5559 5560 5561 5562 5563 5564 5564 5565 5566 5566 5567 5568 5569 5570 5570 5571 5571 5572 5572 5573 5573 5573 5573 5573 5574 5574 5575 5575 5575 5575 5575 5575 5575 5575 5576 5577 5577 5577 5577 5577 5577 5576 5576 5576 5576 5575 5575 5575 5575 5575 5575 5574 5574 5574 5574 5574 5574
5536 5537 5538 5539 5541 5543 5544 5545 5544 5543 5541 5542 5543 5545 5545 5545 5546 5546 5546 5547 5548 5548 5549 5550 5551 5552 5552 5553 5554 5554 5555 5556 5557 5558 5559 5559 5560 5561 5561 5562 5562 5563 5564 5565 5566 5566 5566 5566 5567 5567 5568 5568 5568 5568 5568 5569 5569 5570 5570 5571 5570 5570 5570 5570 5570 5571 5571 5572 5572 5572 5571 5571 5571 5571 5571 5570 5570 5570 5570 5570 5570 5570 5569 5569 5569 5569 5569
5532 5533 5533 5535 5537 5539 5540 5540 5540 5539 5538 5538 5540 5542 5542 5541 5541 5542 5542 5543 5544 5545 5546 5546 5547 5547 5548 5549 5549 5550 5551 5553 5554 5554 5555 5555 5555 5556 5557 5557 5558 5559 5559 5560 5561 5561 5561 5561 5562 5562 5562 5563 5563 5563 5563 5564 5564 5565 5565 5566 5566 5566 5566 5566 5565 5565 5565 5566 5566 5566 5566 5566 5566 5566 5566 5566 5565 5565 5565 5565 5565 5565 5564 5565 5564 5564 5564
5527 5528 5529 5530 5532 5534 5535 5536 5535 5534 5534 5535 5537 5538 5538 5538 5538 5538 5539 5540 5541 5542 5542 5542 5542 5543 5543 5544 5545 5545 5547 5548 5549 5550 5550 5550 5551 5551 5552 5553 5554 5554 5554 5555 5555 5555 5556 5556 5556 5556 5557 5557 5558 5558 5558 5559 5559 5560 5560 5560 5561 5561 5561 5561 5561 5561 5561 5561 5561 5561 5561 5561 5561 5561 5560 5560 5560 5560 5560 5560 5559 5559 5559 5559 5559 5559 5559
5522 5523 5524 5525 5527 5529 5531 5531 5530 5529 5530 5531 5532 5532 5533 5534 5535 5535 5535 5536 5538 5538 5538 5538 5539 5539 5539 5540 5540 5541 5542 5543 5544 5545 5545 5545 5546 5546 5547 5548 5549 5549 5549 5549 5550 5550 5551 5551 5551 5551 5551 5552 5553 5553 5553 5553 5554 5554 5555 5555 5555 5556 5556 5556 5557 5557 5557 5556 5557 5557 5556 5556 5556 5556 5556 5556 5556 5556 5555 5555 5554 5554 5554 5554 5554 5554 5554
5517 5518 5519 5520 5522 5523 5525 5526 5525 5524 5525 5526 5527 5527 5528 5529 5530 5531 5532 5532 5533 5533 5534 5535 5535 5536 5536 5536 5537 5537 5538 5538 5539 5539 5540 5540 5541 5541 5542 5542 5543 5543 5543 5544 5545 5545 5546 5546 5546 5546 5546 5547 5547 5548 5548 5549 5549 5549 5550 5550 5550 5550 5551 5551 5551 5552 5551 5551 5551 5551 5551 5551 5551 5551 5551 5551 5551 5551 5551 5551 5551 5550 5550 5550 5550 5550 5550
5512 5513 5514 5515 5516 5517 5518 5519 5520 5520 5520 5521 5522 5523 5523 5524 5525 5526 5527 5528 5528 5528 5529 5529 5530 5531 5532 5532 5533 5533 5533 5534 5534 5535 5535 5536 5536 5537 5537 5538 5538 5538 5539 5539 5540 5540 5541 5541 5541 5541 5542 5542 5543 5543 5544 5544 5544 5544 5545 5545 5546 5546 5546 5546 5546 5546 5546 5546 5546 5546 5546 5546 5546 5546 5546 5546 5546 5546 5547 5547 5547 5546 5546 5546 5545 5545 5545